Regional Weather Roundup
Issued by NWS

Home | Current Version | Previous Version | Text Only | Print | Product List | Glossary On
Versions: 1 2 3 4 5 6 7 8 9 10 11 12 13 14 15 16 17 18 19 20 21 22 23 24 25 26 27 28 29 30 31 32 33 34 35 36 37 38 39 40 41 42 43 44 45 46 47 48 49 50
148
ASUS43 KOAX 200202
RWRNE

WEATHER ROUNDUP FOR NEBRASKA
NATIONAL WEATHER SERVICE OMAHA NE
900 PM CDT WED JUL 19 2017

NOTES: SATELLITE DATA IS BEING USED TO AUGMENT CLOUD COVER ABOVE
       12000 FEET.
       "FAIR" INDICATES FEW OR NO CLOUDS BELOW 12,000 FEET WITH NO
       SIGNIFICANT WEATHER AND/OR OBSTRUCTIONS TO VISIBILITY.


NEZ001>004-019>022-054>056-200300-
NEBRASKA PANHANDLE

CITY           SKY/WX    TMP DP  RH WIND       PRES   REMARKS
SCOTTSBLUFF    PTCLDY    91  60  35 E20       29.97R HX  90
ALLIANCE       PTCLDY    88  64  44 NE20G28   29.97R
CHADRON        CLEAR     86  48  26 NE13      29.97R
GORDON         FAIR      85  57  38 N12       29.97R
SIDNEY         CLOUDY    81  57  43 N20G31    30.04R
$$

NEZ057>060-069>072-079>082-200300-
SOUTHWEST NEBRASKA

CITY           SKY/WX    TMP DP  RH WIND       PRES   REMARKS
NORTH PLATTE   CLEAR     93  60  33 S13       29.88R HX  93
IMPERIAL       CLEAR     91  54  28 S15       29.93R
LEXINGTON      CLEAR     85  70  60 SE9       29.92R
MCCOOK         CLEAR     92  57  30 S12       29.91R HX  90
OGALLALA       CLOUDY    90  59  35 S6        29.91S
$$

NEZ005>010-023>029-035>040-094-200300-
NORTH CENTRAL NEBRASKA

CITY           SKY/WX    TMP DP  RH WIND       PRES   REMARKS
VALENTINE      CLOUDY    84  61  45 E10       29.92R
AINSWORTH      CLOUDY    76  71  83 SE13G20   29.90S
BROKEN BOW     CLEAR     92  64  39 S16G24    29.88R HX  93
O`NEILL        RAIN      70  70 100 SW7G18    29.95R
ORD            CLOUDY    83  65  54 NE20G26   29.89R
THEDFORD       MOCLDY    88  64  43 E12G22    29.91R
$$

NEZ041-046>049-061>064-073>077-083>087-200300-
SOUTH CENTRAL NEBRASKA

CITY           SKY/WX    TMP DP  RH WIND       PRES   REMARKS
GRAND ISLAND   CLOUDY    85  75  72 S10       29.90S HX  93
AURORA         CLOUDY    84  74  71 SE9       29.92R HX  91
HASTINGS       CLEAR     88  66  48 S9        29.93R HX  90
HEBRON         CLEAR     85  71  64 SE3       29.94R HX  90
HOLDREGE       CLEAR     82  68  63 SE7       29.93R
KEARNEY        CLEAR     84  70  62 S10       29.92R
YORK           CLOUDY    86  72  62 S10       29.92R HX  92
$$

NEZ011>018-030>034-042>045-200300-
NORTHEAST NEBRASKA

CITY           SKY/WX    TMP DP  RH WIND       PRES   REMARKS
NORFOLK        CLOUDY    87  73  62 N14G23    29.93R HX  94
ALBION         CLOUDY    87  74  65 CALM      29.90R HX  94
BLAIR          PTCLDY    87  77  72 S9        29.92R HX  99
COLUMBUS       CLOUDY    87  73  62 S9        29.89R HX  94
FREMONT        CLOUDY    88  73  60 S10       29.90S HX  95
TEKAMAH        CLOUDY    86  75  69 SE3       29.90R HX  95
WAYNE          CLOUDY    87  79  77 E8        29.93S HX 101
$$

NEZ050>053-065>068-078-088>093-200300-
SOUTHEAST NEBRASKA

CITY           SKY/WX    TMP DP  RH WIND       PRES   REMARKS
LINCOLN        CLOUDY    87  74  64 S9        29.92R HX  95
OMAHA EPPLEY   MOCLDY    90  78  68 S15       29.90S HX 104
BEATRICE       CLEAR     90  72  54 S9        29.94R HX  96
FALLS CITY     CLEAR     86  73  65 S8        29.94S HX  93
NEBRASKA CITY  CLEAR     83  79  88 S8        29.94R HX  94
PLATTSMOUTH    CLEAR     85  80  83 SE10      29.93S HX  99
$$

NEZ044-045-051>053-067-200300-
OMAHA AREA

CITY           SKY/WX    TMP DP  RH WIND       PRES   REMARKS
OMAHA EPPLEY   MOCLDY    90  78  68 S15       29.90S HX 104
BLAIR          PTCLDY    87  77  72 S9        29.92R HX  99
FREMONT        CLOUDY    88  73  60 S10       29.90S HX  95
MILLARD        CLOUDY    91  79  68 SE8       29.91S HX 106
OFFUTT AFB     CLOUDY    86  79  79 SE9       29.92R HX 100
PLATTSMOUTH    CLEAR     85  80  83 SE10      29.93S HX  99
WAHOO          FAIR      83  75  77 SE8       29.91R HX  91
$$




USA.gov is the U.S. government's official web portal to all federal, state and local government web resources and services.